Location: Fort Worth, Tx
(32.7431°N, 97.3695°W)
Time: 17:54:00
(UTC-05:00)

ISS - Visible Passes

Search period start: 19 November 2019 00:00
Search period end: 29 November 2019 00:00
Orbit: 412 x 421 km, 51.6° (Epoch: 20 November)

Date Brightness Start Highest point End Pass type
(mag) Time Alt. Az. Time Alt. Az. Time Alt. Az.
19 Nov -2.5 19:23:00 10° S 19:25:48 25° SE 19:26:54 21° E visible
19 Nov -0.2 20:59:41 10° W 20:59:50 11° W 20:59:50 11° W visible
20 Nov -2.7 20:10:49 10° WSW 20:13:52 42° NW 20:13:52 42° NW visible
21 Nov -3.8 19:22:16 10° SW 19:25:36 85° NW 19:27:47 20° NE visible
22 Nov -1.3 20:11:59 10° WNW 20:14:10 16° NNW 20:14:32 16° NNW visible
23 Nov -1.9 19:22:44 10° W 19:25:35 26° NW 19:28:16 11° NNE visible
25 Nov -1.0 19:24:44 10° NW 19:25:49 11° NNW 19:26:53 10° N visible
